Cedar Rapids, IA

12:18 AM CST on November 18, 2019 (GMT -0600)
The Eastern Iowa Airport

Weather History for KCID - September, 2019

Change the Weather History Date:

Friday, September 20, 2019

  Actual Average Record
Temperature  
Mean Temperature 76 °F 61 °F  
Max Temperature 86 °F 73 °F 93 °F (1931)
Min Temperature 66 °F 49 °F 29 °F (1991)
Degree Days  
Heating Degree Days 0 6  
Month to date heating degree days 12 63  
Since 1 July heating degree days 20 82  
Cooling Degree Days 11 2  
Month to date cooling degree days 111 61  
Year to date cooling degree days 763 729  
Growing Degree Days 25 (Base 50)    
Moisture  
Dew Point 68 °F    
Average Humidity 79    
Maximum Humidity 100    
Minimum Humidity 58    
Precipitation  
Precipitation 0.02 in 0.11 in 1.95 in (1907)
Month to date precipitation 2.76 2.20  
Year to date precipitation 30.61 27.50  
Sea Level Pressure  
Sea Level Pressure 30.04 in    
Wind  
Wind Speed 8 mph (SE)    
Max Wind Speed 18 mph    
Max Gust Speed 23 mph    
Visibility 7 miles    
Events Rain , Thunderstorm    
T = Trace of Precipitation, MM = Missing Value Source: NWS Daily Summary

Daily Weather History Graph

Daily Weather History Graph

Search for Another Location

Airport or City:

Astronomy

Sep. 20, 2019 Rise Set
Actual Time 6:51 AM CDT 7:07 PM CDT
Civil Twilight 6:24 AM CDT 7:35 PM CDT
Nautical Twilight 5:51 AM CDT 8:08 PM CDT
Astronomical Twilight 5:17 AM CDT 8:41 PM CDT
Moon 10:52 PM CDT (9/20) 1:02 PM CDT (9/20)
Length of Visible Light 13h 11m
Length of Day
12h 15m
Waning Gibbous, 65% of the Moon is Illuminated
Sep 20
Waning Gibbous
Sep 21
Last Quarter
Sep 28
New
Oct 5
First Quarter
Oct 13
Full

Hourly Weather History & Observations

Time (CDT) Temp. Heat Index Dew Point Humidity Pressure Visibility Wind Dir Wind Speed Gust Speed Precip Events Conditions
12:52 AM 66.0 °F - 66.0 °F 100% 30.03 in 4.0 mi ESE 4.6 mph - N/A   Partly Cloudy
2:52 AM 66.9 °F - 66.9 °F 100% 30.04 in 3.0 mi ESE 3.5 mph - N/A   Mostly Cloudy
3:10 AM 66.9 °F - 66.9 °F 100% 30.06 in 3.0 mi SE 3.5 mph - N/A Thunderstorm Mostly Cloudy
3:29 AM 66.9 °F - 66.9 °F 100% 30.05 in 2.5 mi WNW 4.6 mph - N/A   Mostly Cloudy
3:41 AM 66.9 °F - 66.9 °F 100% 30.05 in 2.5 mi SSE 4.6 mph - N/A Thunderstorm Overcast
3:52 AM 66.9 °F - 66.9 °F 100% 30.04 in 3.0 mi SE 8.1 mph - N/A Thunderstorm Overcast
4:04 AM 66.9 °F - 66.9 °F 100% 30.07 in 2.5 mi SE 6.9 mph - N/A Thunderstorm Mostly Cloudy
4:23 AM 69.1 °F - 68.0 °F 96% 30.05 in 4.0 mi SSE 5.8 mph - 0.02 in Rain , Thunderstorm Light Rain
4:52 AM 69.1 °F - 68.0 °F 96% 30.04 in 5.0 mi NNE 8.1 mph - 0.02 in Thunderstorm Mostly Cloudy
5:21 AM 69.1 °F - 68.0 °F 96% 30.06 in 6.0 mi NNW 8.1 mph - N/A Thunderstorm Mostly Cloudy
5:35 AM 69.1 °F - 68.0 °F 96% 30.05 in 5.0 mi North 5.8 mph - N/A Thunderstorm Mostly Cloudy
5:49 AM 69.8 °F - 68.0 °F 94% 30.05 in 5.0 mi Calm Calm - N/A   Scattered Clouds
5:52 AM 68.0 °F - 68.0 °F 100% 30.03 in 5.0 mi SSE 3.5 mph - N/A   Scattered Clouds
6:52 AM 66.9 °F - 66.9 °F 100% 30.04 in 5.0 mi ESE 5.8 mph - N/A   Clear
7:52 AM 68.0 °F - 66.9 °F 96% 30.06 in 5.0 mi Calm Calm - N/A   Scattered Clouds
8:52 AM 70.0 °F - 69.1 °F 97% 30.08 in 6.0 mi SE 5.8 mph - N/A   Partly Cloudy
9:52 AM 73.9 °F - 70.0 °F 87% 30.09 in 8.0 mi SE 9.2 mph - N/A   Mostly Cloudy
10:52 AM 75.0 °F - 69.1 °F 82% 30.10 in 9.0 mi ESE 9.2 mph - N/A   Scattered Clouds
11:52 AM 77.0 °F - 66.0 °F 69% 30.10 in 10.0 mi East 16.1 mph 21.9 mph N/A   Mostly Cloudy
12:52 PM 81.0 °F 82.7 °F 64.9 °F 58% 30.06 in 10.0 mi SE 12.7 mph - N/A   Clear
1:52 PM 82.0 °F 85.5 °F 69.1 °F 65% 30.02 in 10.0 mi SSE 12.7 mph - N/A   Clear
2:52 PM 84.0 °F 88.4 °F 70.0 °F 63% 30.00 in 10.0 mi South 10.4 mph - N/A   Clear
3:52 PM 84.9 °F 89.4 °F 70.0 °F 61% 29.99 in 10.0 mi SSE 10.4 mph - N/A   Clear
4:52 PM 84.9 °F 88.8 °F 69.1 °F 59% 29.99 in 10.0 mi SE 9.2 mph - N/A   Clear
5:52 PM 84.0 °F 88.4 °F 70.0 °F 63% 29.99 in 10.0 mi SSE 6.9 mph - N/A   Clear
6:52 PM 79.0 °F - 68.0 °F 69% 29.99 in 8.0 mi ESE 6.9 mph - N/A   Clear
7:52 PM 75.0 °F - 68.0 °F 79% 30.00 in 9.0 mi SE 5.8 mph - N/A   Clear
8:52 PM 75.0 °F - 68.0 °F 79% 30.01 in 9.0 mi ESE 9.2 mph - N/A   Clear
9:52 PM 75.0 °F - 68.0 °F 79% 30.00 in 9.0 mi SE 10.4 mph - N/A   Mostly Cloudy
10:52 PM 75.0 °F - 68.0 °F 79% 30.00 in 10.0 mi SSE 8.1 mph - N/A   Clear
11:52 PM 75.0 °F - 69.1 °F 82% 29.98 in 9.0 mi South 9.2 mph - N/A   Partly Cloudy